TIME,DELAY(SENSOR),PRES,OXYGEN,RAWTEMP,T(OPTODE),TCPHASE,FLUOR,BETA(BETA700),BETA(BETA412),BETA(BETA440),CDOM,C(CSC),ED(ED411.90),ED(ED443.80),ED(ED489.40),ED(ED554.70),LU(LU412.20),LU(LU443.80),LU(LU489.40),LU(LU555.00),COMP,TILTX,TILTY,CHECK
1347831709,5804,898.6900024414062000,167.0055999755859400,437.2322998046875000,9.8327598571777340,39.6180305480957000,51,107,97,83,74,15053,2147450331,2147791542,2147579245,2147821458,2147307062,2147459675,2147752475,2148270052,719,6,14,54503
1347835305,5805,11.3999996185302730,195.6553039550781200,506.1614074707031000,7.6871337890625000,38.8442306518554700,52,105,98,82,75,15052,2147434294,2147796388,2147584813,2147832530,2147306276,2147451977,2147765074,2148278866,283,6,14,40196
1347838905,5804,1414.0000000000000000,207.0979003906250000,518.4592895507812000,7.3011341094970700,38.3600616455078100,51,107,98,82,74,15052,2147436233,2147795136,2147585874,2147829458,2147305572,2147451428,2147762651,2148279478,3585,6,14,32552
1347842505,5805,1408.0000000000000000,210.5749969482422000,521.6494140625000000,7.2008299827575680,38.2114295959472660,52,106,99,82,74,15045,2147435995,2147794706,2147584658,2147833216,2147302125,2147449563,2147764836,2148283044,30,6,14,35775
1347846105,5801,14.6999998092651370,211.4042053222656200,523.6043090820312000,7.1393260955810550,38.1982917785644500,51,106,98,82,75,15044,2147436882,2147796004,2147584054,2147831268,2147305782,2147448594,2147764406,2148277824,3187,6,14,21396
1347849705,5808,14.0000000000000000,209.1632995605468800,519.6917724609375000,7.2623882293701170,38.2594299316406250,50,105,97,82,73,15045,2147437613,2147797266,2147585764,2147832786,2147306157,2147448118,2147763419,2148282422,78,6,14,51336
1347853305,5806,14.6000003814697270,207.3287048339843800,519.6093750000000000,7.2649779319763180,38.3669700622558600,51,107,98,81,74,15046,2147434386,2147797010,2147585609,2147830281,2147306422,2147445129,2147760274,2148278966,40,6,14,55561
1347856905,5807,1481.0000000000000000,207.1875000000000000,519.9559936523438000,7.2540831565856930,38.3809890747070300,52,103,97,80,75,15051,2147432457,2147799012,2147585526,2147831387,2147305078,2147450221,2147763456,2148278637,56,6,14,13184
1347860505,5802,10.8000001907348630,203.9893951416015600,513.2166137695312000,7.4658188819885250,38.4536018371582000,51,106,98,82,75,15036,2147434523,2147801764,2147586825,2147831725,2147304429,2147448411,2147762304,2148280429,545,6,14,24132
1347864105,5801,13.3999996185302730,203.8464050292968800,513.2145996093750000,7.4658808708190920,38.4627799987793000,51,108,98,82,74,15035,2147436955,2147801444,2147582153,2147833874,2147303268,2147452379,2147764333,2148279707,3186,6,14,10127
1347867705,5801,12.3000001907348630,203.9524993896484400,513.1649780273438000,7.4674367904663090,38.4555587768554700,51,105,98,82,74,15040,2147434715,2147797348,2147583104,2147831314,2147302564,2147449764,2147763894,2148278976,3313,6,14,17809
1347871305,5807,1070.0000000000000000,204.0182952880859400,513.8900756835938000,7.4446721076965330,38.4641418457031250,52,105,98,81,74,15039,2147439360,2147796041,2147585993,2147829641,2147303561,2147448402,2147759323,2148278875,36,6,14,31119
1347874905,5805,10.8999996185302730,204.1884002685547000,515.4655761718750000,7.3951969146728520,38.4815788269043000,50,106,98,82,74,15041,2147436553,2147794605,2147585718,2147832557,2147305325,2147448100,2147761984,2148281042,252,6,14,25269
1347878505,5802,12.3999996185302730,204.6997070312500000,514.9581909179688000,7.4111328125000000,38.4418601989746100,51,104,98,82,75,15033,2147436205,2147796653,2147587830,2147830107,2147308498,2147448109,2147761846,2148277842,3025,6,14,14468
1347882105,5807,12.3999996185302730,204.8773956298828000,515.4517211914062000,7.3956332206726070,38.4399490356445300,50,103,97,82,74,15036,2147436086,2147795556,2147583424,2147830208,2147306102,2147448484,2147760356,2148275693,45,6,14,31489
1347885705,5804,10.0000000000000000,204.0334014892578000,515.0866699218750000,7.4070949554443360,38.4846916198730500,51,105,98,81,74,15036,2147436333,2147798528,2147579657,2147829595,2147303579,2147445028,2147759131,2148276141,3329,6,15,55766
1347889305,5801,13.6999998092651370,204.3271942138672000,515.0786743164062000,7.4073491096496580,38.4660606384277340,51,115,98,83,77,15038,2147440539,2147797577,2147581933,2147833737,2147304603,2147447204,2147762569,2148281947,3499,6,14,34344
1347892905,5807,10.1999998092651370,204.2416992187500000,514.8646240234375000,7.4140729904174805,38.4680404663085940,51,112,99,84,74,15036,2147435346,2147800237,2147583122,2147830500,2147302281,2147450368,2147764132,2148277878,579,6,14,48846
1347896505,5805,11.6999998092651370,197.7660980224609400,505.5945129394531000,7.7049012184143070,38.7018699645996100,51,103,98,82,75,15030,2147436306,2147795392,2147581650,2147827785,2147306349,2147447277,2147761462,2148278537,35,6,14,19479
1347900105,5802,11.5000000000000000,196.0502014160156200,504.0299987792969000,7.7539258003234860,38.7819404602050800,51,105,98,80,74,15030,2147438939,2147800173,2147581632,2147828416,2147309138,2147449700,2147759698,2148275520,3197,6,14,12930
1347903705,5801,11.6999998092651370,195.9835968017578000,503.9309082031250000,7.7570309638977050,38.7839088439941400,50,105,98,81,75,15030,2147440027,2147796297,2147583533,2147828708,2147302290,2147447149,2147762294,2148278253,3528,6,14,29085
1347907305,5805,11.1999998092651370,194.9795989990234400,505.1158142089844000,7.7199048995971680,38.8679885864257800,50,107,98,82,75,15029,2147439067,2147796160,2147583433,2147826496,2147304484,2147450889,2147761435,2148276434,3367,6,14,35098
1347910905,5804,11.8999996185302730,195.2588043212890600,504.2864074707031000,7.7458930015563965,38.8363914489746100,51,104,98,81,75,15031,2147440064,2147794715,2147584265,2147829814,2147308653,2147455817,2147760073,2148275081,3566,6,14,29447
1347914505,5807,11.8999996185302730,195.0108032226562500,504.3133850097656000,7.7450461387634280,38.8519783020019500,50,103,98,81,74,15030,2147437696,2147797366,2147582034,2147830564,2147307958,2147447990,2147760832,2148278774,96,6,14,63764
1347918105,5803,1119.0000000000000000,195.3410949707031200,506.2262878417969000,7.6850991249084470,38.8652191162109400,51,106,98,83,74,15028,2147437805,2147795712,2147584987,2147830875,2147303158,2147450276,2147761746,2148279113,3551,6,14,19859
1347921705,5804,11.3999996185302730,197.5543060302734400,506.7619934082031000,7.6683068275451660,38.7357482910156250,51,106,97,81,75,15030,2147435547,2147798674,2147584283,2147831570,2147304932,2147450157,2147757714,2148278546,82,6,14,28173
1347925305,5806,10.8999996185302730,197.5182952880859400,507.0646972656250000,7.6588158607482910,38.7432518005371100,51,104,97,85,75,15026,2147435922,2147796873,2147584201,2147831094,2147303524,2147451739,2147757494,2148276690,485,6,14,31775
1347928905,5805,11.8000001907348630,197.0023040771484400,506.8150024414062500,7.6666450500488280,38.7711982727050800,51,105,97,82,75,15029,2147435721,2147798930,2147582473,2147830464,2147307117,2147449307,2147757686,2148275766,257,6,14,57353
1347932505,5806,1139.0000000000000000,197.4524993896484400,506.7004089355469000,7.6702370643615720,38.7411003112793000,51,105,97,82,75,15029,2147436251,2147795355,2147584539,2147828251,2147305124,2147448466,2147758637,2148279314,78,6,14,54961
1347936105,5805,10.8000001907348630,197.5547943115234400,506.8150024414062500,7.6666450500488280,38.7360916137695300,51,104,99,82,73,15029,2147439981,2147796269,2147583862,2147830546,2147304850,2147448201,2147759753,2148276900,211,6,14,32708
1347939705,5805,1207.0000000000000000,196.5897064208984400,505.5452880859375000,7.7064418792724610,38.7746086120605500,50,104,98,82,75,15021,2147439579,2147798180,2147581101,2147828022,2147305746,2147446875,2147760521,2148279085,3477,6,14,42827
1347943305,5803,1180.0000000000000000,196.1918945312500000,505.1895141601562500,7.7175941467285160,38.7929801940918000,51,105,98,81,75,15021,2147438893,2147794569,2147583030,2147831945,2147307382,2147445613,2147758665,2148277467,3540,6,14,54877
1347946905,5803,1174.0000000000000000,196.4445037841797000,505.4757995605469000,7.7086210250854490,38.7817802429199200,50,104,98,81,75,15008,2147439140,2147796726,2147583917,2147831771,2147306678,2147453129,2147758509,2148280228,3555,6,14,15635
1347950505,5804,11.8999996185302730,196.4387054443359400,505.1473083496094000,7.7189159393310550,38.7767906188964840,51,106,97,81,75,15027,2147438336,2147796717,2147584420,2147829933,2147308617,2147449188,2147757952,2148274989,101,6,14,3332
1347954105,5805,11.8999996185302730,197.1390075683593800,506.2005004882812500,7.6859068870544430,38.7518196105957000,50,106,98,81,75,15026,2147437833,2147798162,2147578121,2147826587,2147304585,2147447680,2147762267,2148277129,147,6,14,35887
1347957705,5801,10.3000001907348630,196.8334045410156200,506.2558898925781000,7.6841711997985840,38.7718887329101560,51,106,98,81,74,15025,2147435657,2147797366,2147582701,2147826203,2147306496,2147449426,2147761554,2148278354,3478,6,15,64800
1347961305,5804,1066.0000000000000000,197.1840057373047000,506.8183898925781000,7.6665401458740230,38.7592010498046900,51,104,99,82,75,15029,2147435492,2147797467,2147580946,2147825508,2147308160,2147452013,2147758729,2148276278,192,6,14,45921
1347964905,5805,11.3000001907348630,195.7097930908203000,507.2596130371094000,7.6527080535888670,38.8595390319824200,51,114,98,81,75,15027,2147441280,2147797906,2147582875,2147831058,2147308342,2147449408,2147760941,2148278454,289,6,14,2297
1347968505,5805,11.3999996185302730,197.4918975830078000,509.0571899414062500,7.5963377952575680,38.7796516418457000,50,104,98,82,75,15027,2147438518,2147795209,2147583277,2147830116,2147307008,2147448960,2147758381,2148274578,11,6,14,48226
1347972105,5804,10.3000001907348630,196.1537933349609400,509.0650024414062500,7.5960922241210940,38.8636398315429700,50,105,98,82,74,15028,2147437284,2147798683,2147583424,2147827190,2147306889,2147447286,2147762816,2148277065,113,6,15,64682
1347975056,5804,1058.0000000000000000,196.9040069580078000,509.5224914550781000,7.5817408561706540,38.8241004943847660,51,107,98,82,74,15023,2147439286,2147796672,2147584932,2147828992,2147305197,2147448018,2147762953,2148274459,173,6,14,61754
